Volver al catálogo

STARLINK-4538

ActivoComunicacionesVLEO
NORAD 53430·PAYLOAD·🇺🇸 United States

Lanzado Aug 10, 2022 desde Cape Canaveral Space Force Station

Loading…

Próximos Pases (próximas 24 horas)

TLE

ActualizadoSource: CelesTrak SupGP

Época: Sep 14, 2026, 22:18 UTC

1 53430C 22097AU  26257.92965278 -.00005466  00000+0 -15643-3 0  2576
2 53430  53.1586 319.6490 0001031  86.7330  22.4341 15.35389872    17

Sigue STARLINK-4538 en tiempo real con AllMySat

Download on the App Store